Terug naar catalogus

GEESAT 5-04

ActiefCommunicatieLEO
NORAD 65553·PAYLOAD·🇨🇳 China

Gelanceerd Sep 8, 2025 vanaf Yellow Sea Launch Area

Loading…

Volgende Passages (komende 24 uur)

TLE

VersSource: Space-Track

Epoch: Sep 14, 2026, 05:45 UTC

1 65553U 25201D   26257.23970383  .00000879  00000-0  13035-3 0  9990
2 65553  49.9875 346.6914 0008481 252.3675 107.6338 14.84420005 55019

Volg GEESAT 5-04 in realtime met AllMySat

Download on the App Store